Harlan, IA

1:14 PM CST on January 20, 2017 (GMT -0600)
Harlan Municipal

Weather History for KHNR - February, 2014

Change the Weather History Date:

Sunday, February 16, 2014

  Actual Average Record
Temperature  
Mean Temperature 24 °F -  
Max Temperature 30 °F 35 °F 62 °F (1961)
Min Temperature 17 °F 14 °F -23 °F (1958)
Degree Days  
Heating Degree Days 42    
Moisture  
Dew Point 20 °F    
Average Humidity 84    
Maximum Humidity 93    
Minimum Humidity 74    
Precipitation  
Precipitation 0.00 in - - ()
Sea Level Pressure  
Sea Level Pressure 30.09 in    
Wind  
Wind Speed 12 mph (ESE)    
Max Wind Speed 18 mph    
Max Gust Speed 24 mph    
Visibility 10 miles    
Events      
Averages and records for this station are not official NWS values.
T = Trace of Precipitation, MM = Missing Value Source: NWS Daily Summary

Daily Weather History Graph

Daily Weather History Graph

Search for Another Location

Airport or City:

Trip Planner

Search our weather history database for the weather conditions in past years. The results will help you decide how hot, cold, wet, or windy it might be!

Date:

Astronomy

Feb. 16, 2014 Rise Set
Actual Time 7:15 AM CST 5:56 PM CST
Civil Twilight 6:46 AM CST 6:24 PM CST
Nautical Twilight 6:14 AM CST 6:57 PM CST
Astronomical Twilight 5:42 AM CST 7:29 PM CST
Moon 7:56 PM CST (2/16) 7:43 AM CST (2/16)
Length of Visible Light 11h 37m
Length of Day
10h 41m
Full, 97% of the Moon is Illuminated
Feb 16
Full
Feb 22
Last Quarter
Mar 1
New
Mar 8
First Quarter
Mar 16
Full

Hourly Weather History & Observations

Time (CST) Temp. Windchill Dew Point Humidity Pressure Visibility Wind Dir Wind Speed Gust Speed Precip Events Conditions
12:15 AM 28.4 °F 17.5 °F 24.8 °F 86% 30.09 in 10.0 mi NNW 13.8 mph - N/A   Overcast
12:35 AM 28.4 °F 15.8 °F 23.0 °F 80% 30.09 in 10.0 mi NNW 18.4 mph - N/A   Overcast
12:55 AM 26.6 °F 15.7 °F 23.0 °F 86% 30.09 in 10.0 mi NNW 12.7 mph - N/A   Overcast
1:15 AM 26.6 °F 14.7 °F 23.0 °F 86% 30.09 in 10.0 mi NNW 15.0 mph - N/A   Overcast
1:35 AM 26.6 °F 16.8 °F 23.0 °F 86% 30.10 in 10.0 mi NNW 10.4 mph - N/A   Overcast
1:55 AM 26.6 °F 16.8 °F 23.0 °F 86% 30.12 in 10.0 mi North 10.4 mph 18.4 mph N/A   Overcast
2:15 AM 26.6 °F 14.7 °F 23.0 °F 86% 30.15 in 10.0 mi NW 15.0 mph - N/A   Overcast
2:35 AM 24.8 °F 14.6 °F 21.2 °F 86% 30.14 in 10.0 mi North 10.4 mph - N/A   Overcast
2:55 AM 24.8 °F 14.6 °F 21.2 °F 86% 30.15 in 10.0 mi NW 10.4 mph - N/A   Overcast
3:15 AM 23.0 °F 14.7 °F 21.2 °F 93% 30.15 in 10.0 mi NNW 6.9 mph - N/A   Overcast
3:35 AM 23.0 °F 14.7 °F 21.2 °F 93% 30.15 in 10.0 mi NNW 6.9 mph 13.8 mph N/A   Overcast
3:55 AM 23.0 °F 13.9 °F 19.4 °F 86% 30.15 in 10.0 mi NNW 8.1 mph - N/A   Overcast
4:15 AM 23.0 °F 12.4 °F 19.4 °F 86% 30.14 in 10.0 mi North 10.4 mph - N/A   Overcast
4:35 AM 23.0 °F 13.9 °F 19.4 °F 86% 30.14 in 10.0 mi North 8.1 mph - N/A   Overcast
4:55 AM 21.2 °F 10.9 °F 17.6 °F 86% 30.15 in 10.0 mi NNE 9.2 mph - N/A   Overcast
5:15 AM 21.2 °F 11.7 °F 17.6 °F 86% 30.16 in 10.0 mi NNE 8.1 mph - N/A   Overcast
5:35 AM 21.2 °F 11.7 °F 17.6 °F 86% 30.17 in 10.0 mi North 8.1 mph - N/A   Overcast
5:55 AM 21.2 °F 11.7 °F 17.6 °F 86% 30.17 in 10.0 mi North 8.1 mph - N/A   Overcast
6:15 AM 19.4 °F 8.6 °F 17.6 °F 93% 30.17 in 10.0 mi North 9.2 mph - N/A   Overcast
6:35 AM 19.4 °F 9.5 °F 15.8 °F 86% 30.18 in 10.0 mi North 8.1 mph - N/A   Overcast
6:55 AM 19.4 °F 10.4 °F 15.8 °F 86% 30.18 in 10.0 mi North 6.9 mph 13.8 mph N/A   Overcast
7:15 AM 19.4 °F 10.4 °F 15.8 °F 86% 30.18 in 10.0 mi NNE 6.9 mph - N/A   Overcast
7:35 AM 19.4 °F 9.5 °F 15.8 °F 86% 30.19 in 9.0 mi NE 8.1 mph - N/A   Overcast
7:55 AM 19.4 °F 8.6 °F 15.8 °F 86% 30.19 in 8.0 mi NE 9.2 mph - N/A   Overcast
8:15 AM 17.6 °F 7.3 °F 15.8 °F 93% 30.19 in 8.0 mi NE 8.1 mph - N/A   Overcast
8:35 AM 17.6 °F 5.7 °F 15.8 °F 93% 30.19 in 8.0 mi ENE 10.4 mph - N/A   Overcast
8:55 AM 17.6 °F 7.3 °F 15.8 °F 93% 30.19 in 8.0 mi NE 8.1 mph 13.8 mph N/A   Overcast
9:15 AM 19.4 °F 9.5 °F 15.8 °F 86% 30.21 in 9.0 mi ENE 8.1 mph - N/A   Overcast
9:35 AM 19.4 °F 9.5 °F 15.8 °F 86% 30.21 in 9.0 mi ENE 8.1 mph - N/A   Overcast
9:55 AM 19.4 °F 9.5 °F 15.8 °F 86% 30.20 in 9.0 mi East 8.1 mph - N/A   Overcast
10:15 AM 19.4 °F 7.9 °F 17.6 °F 93% 30.20 in 9.0 mi ESE 10.4 mph - N/A   Overcast
10:35 AM 21.2 °F 11.7 °F 17.6 °F 86% 30.20 in 9.0 mi ESE 8.1 mph - N/A   Overcast
10:55 AM 21.2 °F 10.1 °F 17.6 °F 86% 30.19 in 8.0 mi SE 10.4 mph - N/A   Overcast
11:15 AM 21.2 °F 9.5 °F 19.4 °F 93% 30.18 in 9.0 mi SE 11.5 mph - N/A   Overcast
11:35 AM 23.0 °F 12.4 °F 19.4 °F 86% 30.17 in 10.0 mi SE 10.4 mph 17.3 mph N/A   Overcast
11:55 AM 23.0 °F 11.7 °F 19.4 °F 86% 30.17 in 9.0 mi SE 11.5 mph 17.3 mph N/A   Overcast
12:15 PM 23.0 °F 10.6 °F 19.4 °F 86% 30.15 in 9.0 mi SE 13.8 mph - N/A   Overcast
12:35 PM 24.8 °F 12.4 °F 19.4 °F 80% 30.13 in 10.0 mi ESE 15.0 mph - N/A   Overcast
12:55 PM 24.8 °F 14.0 °F 21.2 °F 86% 30.13 in 9.0 mi SE 11.5 mph 19.6 mph N/A   Overcast
1:15 PM 24.8 °F 12.4 °F 21.2 °F 86% 30.12 in 8.0 mi SE 15.0 mph - N/A   Overcast
1:35 PM 24.8 °F 13.4 °F 21.2 °F 86% 30.11 in 8.0 mi SE 12.7 mph - N/A   Overcast
1:55 PM 26.6 °F 15.7 °F 21.2 °F 80% 30.10 in 9.0 mi SE 12.7 mph 19.6 mph N/A   Overcast
2:15 PM 26.6 °F 15.7 °F 21.2 °F 80% 30.08 in 9.0 mi SE 12.7 mph 18.4 mph N/A   Overcast
2:35 PM 26.6 °F 15.2 °F 21.2 °F 80% 30.08 in 9.0 mi SE 13.8 mph - N/A   Overcast
2:55 PM 28.4 °F 17.5 °F 21.2 °F 74% 30.07 in 10.0 mi SSE 13.8 mph - N/A   Overcast
3:15 PM 28.4 °F 16.6 °F 21.2 °F 74% 30.05 in 10.0 mi SE 16.1 mph - N/A   Overcast
3:35 PM 28.4 °F 16.2 °F 21.2 °F 74% 30.04 in 10.0 mi SE 17.3 mph - N/A   Mostly Cloudy
3:55 PM 28.4 °F 15.8 °F 21.2 °F 74% 30.03 in 10.0 mi SE 18.4 mph - N/A   Partly Cloudy
4:15 PM 30.2 °F 18.5 °F 23.0 °F 75% 30.03 in 10.0 mi SE 17.3 mph 23.0 mph N/A   Clear
4:35 PM 30.2 °F 20.2 °F 23.0 °F 75% 30.02 in 10.0 mi SE 12.7 mph 23.0 mph N/A   Clear
4:55 PM 30.2 °F 18.9 °F 23.0 °F 75% 30.01 in 10.0 mi SE 16.1 mph 23.0 mph N/A   Clear
5:15 PM 28.4 °F 17.0 °F 23.0 °F 80% 30.01 in 10.0 mi SE 15.0 mph 23.0 mph N/A   Clear
5:35 PM 28.4 °F 16.6 °F 23.0 °F 80% 30.01 in 10.0 mi SE 16.1 mph 24.2 mph N/A   Clear
5:55 PM 28.4 °F 18.0 °F 23.0 °F 80% 30.01 in 10.0 mi SE 12.7 mph - N/A   Partly Cloudy
6:15 PM 26.6 °F 15.7 °F 21.2 °F 80% 30.00 in 10.0 mi SE 12.7 mph - N/A   Clear
6:35 PM 26.6 °F 15.7 °F 21.2 °F 80% 30.00 in 10.0 mi SE 12.7 mph - N/A   Clear
6:55 PM 26.6 °F 15.2 °F 21.2 °F 80% 30.00 in 10.0 mi SE 13.8 mph - N/A   Clear
7:15 PM 26.6 °F 15.2 °F 21.2 °F 80% 29.99 in 10.0 mi SE 13.8 mph - N/A   Clear
7:35 PM 26.6 °F 16.2 °F 21.2 °F 80% 30.00 in 10.0 mi SSE 11.5 mph 17.3 mph N/A   Clear
7:55 PM 26.6 °F 14.7 °F 21.2 °F 80% 29.98 in 10.0 mi SSE 15.0 mph - N/A   Clear
8:15 PM 26.6 °F 15.2 °F 21.2 °F 80% 29.98 in 10.0 mi SSE 13.8 mph - N/A   Clear
8:35 PM 26.6 °F 13.8 °F 21.2 °F 80% 29.97 in 10.0 mi SSE 17.3 mph - N/A   Clear
8:55 PM 26.6 °F 14.7 °F 23.0 °F 86% 29.98 in 10.0 mi SSE 15.0 mph 23.0 mph N/A   Partly Cloudy
9:15 PM 26.6 °F 13.8 °F 23.0 °F 86% 29.97 in 10.0 mi SSE 17.3 mph - N/A   Clear
9:35 PM 26.6 °F 13.8 °F 23.0 °F 86% 29.97 in 10.0 mi SSE 17.3 mph - N/A   Clear
9:55 PM 26.6 °F 15.7 °F 23.0 °F 86% 29.97 in 10.0 mi SSE 12.7 mph 19.6 mph N/A   Clear
10:15 PM 26.6 °F 15.7 °F 23.0 °F 86% 29.95 in 10.0 mi SSE 12.7 mph - N/A   Partly Cloudy
10:35 PM 26.6 °F 16.2 °F 23.0 °F 86% 29.95 in 10.0 mi SE 11.5 mph 18.4 mph N/A   Partly Cloudy
10:55 PM 26.6 °F 18.2 °F 23.0 °F 86% 29.94 in 10.0 mi SE 8.1 mph 15.0 mph N/A   Mostly Cloudy
11:15 PM 26.6 °F 16.8 °F 23.0 °F 86% 29.92 in 10.0 mi SE 10.4 mph 16.1 mph N/A   Scattered Clouds
11:35 PM 26.6 °F 19.1 °F 23.0 °F 86% 29.91 in 10.0 mi SE 6.9 mph - N/A   Partly Cloudy
11:55 PM 26.6 °F 18.2 °F 23.0 °F 86% 29.91 in 10.0 mi SE 8.1 mph - N/A   Partly Cloudy